#timestamp,LO_Frequency,Hit,StdDev 
1513472415.2,286046998.4,N
1513472435.0,286046998.8,N
1513472435.9,286046998.8,N
1513472455.8,286046996.6,N
1513472475.6,286046996.0,N
1513472495.4,286046995.2,N
1513472515.2,286046999.5,N
1513472535.1,286046996.5,N
1513472536.0,286046996.5,N
1513472555.8,286046995.5,N
1513472575.6,286046992.4,N
1513472595.5,286046987.7,Y
1513472615.3,286046989.9,P
1513472635.1,286046987.3,N
1513472655.9,286046989.7,N
1513472675.7,286046991.0,N
1513472695.5,286046987.3,Y
1513472715.4,286046990.5,P
1513472735.2,286046987.2,P
1513472755.0,286046986.7,P
1513472756.0,286046986.7,Y
1513472775.8,286046996.4,P
1513472795.6,286046995.2,N
1513472815.4,286046993.5,N
1513472835.3,286046997.9,N
1513472855.1,286046995.6,N
1513472875.8,286046995.3,N
1513472895.7,286046995.4,N
1513472915.5,286046995.1,N
1513472935.3,286046994.9,N
1513472955.2,286046995.4,N
1513472975.9,286046999.1,N
1513472995.7,286046999.5,N
1513473015.6,286046994.6,N
1513473035.4,286046997.3,N
1513473055.2,286046998.8,N
1513473075.0,286046995.3,N
1513473076.0,286046995.3,N
1513473095.8,286046993.5,N
1513473115.6,286046994.8,N
1513473135.5,286046992.1,Y
1513473155.3,286047000.1,P
1513473175.1,286046999.5,N
1513473195.8,286047001.1,N
1513473215.7,286047003.3,N
1513473235.5,286047001.8,N
1513473255.3,286047002.4,N
1513473275.2,286047003.4,N
1513473295.9,286046999.8,N
1513473315.7,286046997.9,N
1513473335.6,286046998.0,N
1513473355.4,286047000.9,N
1513473375.2,286047000.3,N
1513473395.1,286046999.5,N
1513473396.0,286046999.5,N
1513473415.8,286046999.7,N
1513473435.6,286046996.9,N
1513473455.5,286046995.3,N
1513473475.3,286047004.4,N
1513473495.1,286047003.4,N
1513473515.8,286047007.2,N
1513473535.7,286047005.2,N
1513473555.5,286047007.3,N
1513473575.3,286047008.7,N
1513473595.2,286047007.9,N
1513473615.9,286047007.7,N
1513473635.7,286047006.9,N
1513473655.6,286047009.0,N
1513473675.4,286047010.7,N
1513473695.2,286047011.7,N
1513473715.1,286047009.5,N
1513473716.0,286047009.5,N
1513473735.8,286047009.3,N
1513473755.6,286047009.9,N
1513473775.5,286047007.1,N
1513473795.3,286047008.9,N
1513473815.1,286047007.3,N
1513473835.8,286047005.5,N
1513473855.7,286047007.5,N
1513473875.5,286047006.7,N
1513473895.3,286047005.4,N
1513473915.2,286047006.8,N
1513473935.9,286047009.2,N
1513473955.7,286047009.1,N
1513473975.6,286047006.5,N
1513473995.4,286047006.6,N
1513474015.2,286047001.5,N
1513474035.1,286046998.6,N
1513474036.0,286046998.6,N
1513474055.8,286046999.0,N
1513474075.6,286046999.3,N
1513474095.5,286046996.5,N
1513474115.3,286046998.1,N
1513474135.1,286047000.9,N
1513474155.8,286046998.5,N
1513474175.7,286047002.7,N
1513474195.5,286046999.7,N
1513474215.3,286046997.2,N
1513474235.2,286046996.9,N
1513474255.0,286046997.7,N
1513474255.9,286046997.7,N
1513474275.7,286046995.7,N
1513474295.6,286046993.4,N
1513474315.4,286046990.6,N
1513474335.2,286046989.0,N
1513474355.1,286046987.0,N
1513474356.0,286046987.0,N
1513474375.8,286046986.2,N
1513474395.6,286046986.0,N
1513474415.5,286046986.3,N
1513474435.3,286046990.0,N
1513474455.1,286046989.8,N
1513474475.9,286046986.9,N
1513474495.7,286046985.7,N
1513474515.5,286046986.9,N
1513474535.4,286046988.0,N
1513474555.2,286046987.2,N
1513474575.0,286046987.2,N
1513474575.9,286046987.2,N
1513474595.7,286046986.6,N
1513474615.6,286046987.5,N
1513474635.4,286046988.3,N
1513474655.2,286046987.8,N
1513474675.1,286046984.6,N
1513474676.0,286046984.6,Y
1513474695.8,286046993.7,P
1513474715.6,286046994.5,P
1513474735.5,286046996.3,N
1513474755.3,286046990.9,Y
1513474775.1,286046994.2,P
1513474795.9,286046994.4,P
1513474815.7,286046993.3,P
1513474835.6,286046993.0,Y
1513474855.4,286046994.0,P
1513474875.2,286046990.5,P
1513474895.0,286046992.7,P
1513474896.0,286046992.7,Y
1513474915.8,286046998.5,P
1513474935.6,286046997.2,N
1513474955.4,286046995.7,N
1513474975.3,286046993.8,N
1513474995.1,286046994.8,N
1513475015.8,286046993.2,Y
1513475035.7,286046993.8,P
1513475055.5,286046995.3,P
1513475075.3,286046999.3,N
1513475095.2,286046995.8,N
1513475115.9,286046993.5,Y
1513475135.7,286046998.7,P
1513475155.6,286046999.3,N
1513475175.4,286046998.8,N
1513475195.2,286046999.7,N
1513475215.1,286047001.1,N
1513475216.0,286047001.1,N
1513475235.8,286046999.8,N
1513475255.6,286047006.7,Y
1513475275.5,286047008.6,P
1513475295.3,286047003.1,N
1513475315.1,286047005.9,N
1513475335.9,286047005.5,N
1513475355.7,286047006.7,N
1513475375.5,286047010.8,Y
1513475395.4,286047003.0,P
1513475415.2,286047001.1,N
1513475435.0,286047001.1,N
1513475435.9,286047001.1,N
1513475455.8,286047003.7,N
1513475475.6,286047001.4,N
1513475495.4,286047002.1,N
1513475515.3,286047007.3,Y
1513475535.1,286047005.6,P
1513475536.0,286047005.6,P
1513475555.8,286047006.9,P
1513475575.7,286047003.1,N
1513475595.5,286047002.4,N
1513475615.3,286047004.1,N
1513475635.2,286047005.1,Y
1513475655.9,286047007.2,P
1513475675.7,286047006.2,P
1513475695.6,286047008.4,P
1513475715.4,286047010.1,Y
1513475735.2,286047006.3,P
1513475755.1,286047006.4,P
1513475756.0,286047006.4,P
1513475775.8,286047008.6,Y
1513475795.6,286046998.7,P
1513475815.5,286046995.6,N
1513475835.3,286046996.6,N
1513475855.1,286046999.7,N
1513475875.9,286047004.9,N
1513475895.7,286047003.4,N
1513475915.5,286047004.4,N
1513475935.3,286047003.9,N
1513475955.2,286047000.7,N
1513475975.9,286047001.5,N
1513475995.7,286047005.6,N
